Home   Weather   Ajmān   Past weeks

Flag for United Arab Emirates Past Weather in Ajmān, Ajman, United Arab Emirates — Yesterday and Last 2 Weeks

Now
93 °F

Sunny.


Feels Like: 95 °F
Forecast: 81 / 93 °F
Wind: 13 mph from Northwest

Location: Sharjah International Airport

Current Time: Apr 30, 2017 at 7:09:52 pm

Latest Report: Apr 30, 2017 at 6:00 pm


Visibility: 10 mi

Pressure: 29.77 "Hg

Humidity: 39%

Dew Point: 64 °F

Location of AjmānLocation

Past Weather in Ajmān — Graph

°F

Ajmān Temperature Yesterday

Maximum temperature yesterday: 100 °F (at 11:00 am)
Minimum temperature yesterday: 77 °F (at 2:00 am)
Average temperature yesterday: 89 °F

High & Low Weather Summary for the Past Weeks

 TemperatureHumidityPressure
High106 °F (Apr 30, 12:00 pm)94% (Apr 17, 8:00 am)29.89 "Hg (Apr 17, 8:00 am)
Low70 °F (Apr 16, 5:00 am)7% (Apr 25, 12:00 pm)29.68 "Hg (Apr 16, 3:00 am)
Average85 °F50%29.77 "Hg
* Reported Apr 15 6:00 pm — Apr 30 6:00 pm, Ajmān, Weather by CustomWeather, © 2017

Note: Actual official high and low records may vary slightly from our data, if they occured in-between our weather recording intervals... More about our weather records

Advertising

Ajmān Weather History for the Previous 24 Hours

Scroll right to see more
 ConditionsComfort  
Time TempWeatherWind HumidityBarometerVisibility
6:00 pm
Sun, Apr 30
93 °FSunny.13 mph39%29.77 "Hg10 mi
5:00 pm97 °FSunny.18 mph25%29.77 "Hg10 mi
4:00 pm97 °FSunny.15 mph28%29.77 "Hg10 mi
3:00 pm99 °FSunny.16 mph27%29.77 "Hg10 mi
2:00 pm100 °FSunny.20 mph24%29.80 "Hg10 mi
1:00 pm104 °FPassing clouds.12 mph19%29.80 "HgN/A
12:00 pm106 °FPassing clouds.10 mph14%29.83 "HgN/A
11:00 am102 °FPassing clouds.13 mph16%29.83 "HgN/A
10:00 am100 °FSunny.13 mph17%29.86 "Hg10 mi
9:00 am95 °FSunny.5 mph23%29.86 "Hg10 mi
8:00 am91 °FPassing clouds.3 mph30%29.83 "HgN/A
7:00 am82 °FPassing clouds.5 mph51%29.83 "HgN/A
6:00 am81 °FSunny.3 mph54%29.80 "Hg10 mi
5:00 am79 °FClear.3 mph58%29.80 "Hg10 mi
4:00 am82 °FPassing clouds.7 mph55%29.80 "HgN/A
3:00 am77 °FClear.3 mph65%29.77 "Hg10 mi
2:00 am81 °FClear.5 mph58%29.77 "Hg10 mi
1:00 am82 °FClear.3 mph55%29.80 "Hg10 mi
12:00 am82 °FClear.2 mph55%29.80 "Hg10 mi
11:00 pm
Sat, Apr 29
84 °FClear.No wind51%29.83 "Hg10 mi
10:00 pm86 °FClear.1 mph52%29.83 "Hg10 mi
9:00 pm88 °FClear.2 mph46%29.80 "Hg10 mi
8:00 pm88 °FClear.3 mph49%29.80 "Hg10 mi
7:00 pm90 °FClear.6 mph49%29.80 "Hg10 mi
Weather by CustomWeather, © 2017

See weather overviewHow to use our weather pages